{"data":{"norad_id":59193,"intl_designator":"2024-045R","name":"STARLINK-31548","alt_names":[],"object_type":"PAYLOAD","status":"ACTIVE","operator":null,"country":"US","launch_date":"2024-03-10","launch_site_code":"AFETR","launch_vehicle":null,"mission":null,"orbit_class":"UNKNOWN","rcs_meters":null,"size_class":null,"mass_kg":null,"dimensions":null,"purposes":["comms"],"wikipedia_slug":null,"has_3d_model":false,"image_url":null,"decayed_at":null,"tle_current":{"epoch":"2026-09-19T19:11:33.794880Z","epoch_age_seconds":219389,"freshness":"STALE","line1":"1 59193U 24045R   26262.79969670  .00000630  00000+0  32413-4 0  9998","line2":"2 59193  43.0040  76.6866 0000923 269.7696  90.3050 15.27580421142849","mean_motion":15.27580421,"eccentricity":9.23e-5,"inclination_deg":43.004,"raan_deg":76.6866,"arg_perigee_deg":269.7696,"mean_anomaly_deg":90.305,"bstar":3.2413e-5,"rev_number":14284,"period_min":94.266722733808,"perigee_km":482.41454805418,"apogee_km":483.6811227748,"semimajor_km":6861.1848354145,"source":"CELESTRAK","updated_at":"2026-09-21T09:00:34.065208Z"}}}